Location: Buena Vista
(37.7110°N, 119.7938°W)
Time: 18:18:05
(UTC+00:00)

CAS-4B - Visible Passes

Search period start: 17 May 2025 00:00
Search period end: 27 May 2025 00:00
Orbit: 374 x 399 km, 43.0° (Epoch: 17 May)

Date Brightness Start Highest point End Pass type
(mag) Time Alt. Az. Time Alt. Az. Time Alt. Az.
17 May ? 04:53:44 10° WNW 04:56:31 29° N 04:57:59 20° NE visible
18 May ? 03:54:31 10° WNW 03:57:23 31° N 04:00:13 10° ENE visible
18 May ? 05:31:39 10° WNW 05:33:55 31° NNW 05:33:55 31° NNW visible
19 May ? 04:32:28 10° WNW 04:35:17 30° N 04:37:23 15° ENE visible
19 May ? 06:09:12 10° WNW 06:09:37 13° WNW 06:09:37 13° WNW visible
20 May ? 03:33:03 10° WNW 03:35:51 29° N 03:38:39 10° ENE visible
20 May ? 05:09:56 10° WNW 05:12:54 48° NNE 05:12:54 48° NNE visible
21 May ? 04:10:30 10° WNW 04:13:26 35° N 04:16:03 12° ENE visible
21 May ? 05:47:12 10° WNW 05:48:16 19° WNW 05:48:16 19° WNW visible
22 May ? 04:47:35 10° WNW 04:50:43 76° NNE 04:51:15 56° E visible
23 May ? 03:47:53 10° WNW 03:50:57 48° NNE 03:53:59 10° E visible
23 May ? 05:24:44 10° W 05:26:19 23° WSW 05:26:19 23° WSW visible
24 May ? 04:24:41 10° WNW 04:27:48 62° SSW 04:29:05 30° SE visible
25 May ? 05:02:00 10° W 05:03:55 18° SW 05:03:55 18° SW visible
26 May ? 04:01:19 10° W 04:04:12 33° SSW 04:06:29 14° SSE visible
